Showing default

GAOFEN 13 02, 55912

Orbit data source: Space-Track

GAOFEN 13 02, 55912 is a payload satellite owned by Yaogan Zongti (CN) in GEO that was launched on Fri, 17 Mar 2023 UTC via a CHANG ZHENG 3B launch vehicle from the Xichang Space Center, China (XSC). Payload-class satellites include a variety of spacecraft equipped with specific instruments for various scientific and technological missions. These include communications satellites like Starlink; space stations such as the ISS; scientific satellites like the Hubble; Earth observation satellites from companies like Planet Labs, Umbra, and HawkEye 360; GPS; miniature CubeSats for education and research; and military/defense satellites.

Not visible in the next 10 days
Identifier
55912, 2023-036A
Orbit
GEO
Country
Flag of CNCN / PRC
Related business
Manufacturer
CAST
Mission
Operational Defense Imaging
Bus & Motor
DFH-4?, DFH-4 LAE
Mass
4,600 kg wet, ~2,500 kg dry
Launch date (UTC)
2023-03-17 (3 years ago)
Launch vehicle
CHANG ZHENG 3B
Launch site
Xichang Space Center, China (XSC)
Object type
Payload
Rocket body
Debris
Shape & HBR
Box + 2 Pan, 15.0 m
Radar Cross Section
34.063 m², Large (>1 m²)

Expand to show TLE details & history
Last TLE update: 1 day ago

TLE from 1 day ago
0 GAOFEN 13 02
1 55912U 23036A   26149.61697081 -.00000208  00000-0  00000-0 0  9997
2 55912   1.0184 358.8205 0004502 344.3399 274.2888  1.00275935 11907
Epoch: 2026-05-29T14:48Z
TLE epoch observation values (Epoch: 2026-05-29T14:48:26.277Z)
Latitude
-1.01881°
Longitude
148.13669°
Altitude
35,783.692 km
Speed
3.075 km/s
True Right ascension
17h 09m 33s
True Declination
-1° 01' 04"
Sunlit
Object was in daylight at epoch
Visualization orbit readout
Latitude
Unknown
Longitude
Unknown
Altitude
Unknown
Speed
Unknown
Apparent Right ascension
Unknown
Apparent Declination
Unknown
Sunlit
N/A
Visualization observer readout
Local Sidereal Time
02:03:42
Azimuth
Unknown
Elevation
Unknown
Doppler factor
Unknown
Orbital elements
Apogee altitude
35,805.484 km
Perigee altitude
35,767.519 km
Semi-major axis
42,164.639 km
Eccentricity
0.00045
Inclination
1.0184°
RAAN
358.8205°
Arg. of periapsis
344.3399°
True anomaly
274.23735°
Mean anomaly
274.2888°
Eccentric anomaly
274.26308°
Mean motion
0.25068 °/min
Orbital period
1,436.09 mins
BSTAR
0
Loading maneuver chart data...
Computing Atmospheric mass density...
Loading historical data...
Loading historical data...
Loading historical data...
Loading historical data...
Loading historical data...
Loading historical data...
Loading historical data...
Other satellites on launch #36 in the year 2023 (2023-03-17 UTC)

Documentation

Showing up to 5 results
|